Simultaneous Nadir Overpasses (SNOs) Predictions

Prediction of SNOs between METOP-B and TERRA Satellite Orbit:

Table of predicted SNOs for the next 14.0 days since TLE Epoch: 12/9/2023
Index Date (METOP-B) Time (METOP-B) Lat,Lon (METOP-B) SZA (METOP-B ) Date (TERRA) Time (TERRA) Lat,Lon (TERRA) SZA (TERRA ) Distance(km) Time Diff (sec)
1 12/09/2023 23:12:32 -80.55, 39.11 75.51 12/09/2023 23:12:41 -80.55, 39.23 75.50 2.07 9
2 12/10/2023 00:03:09 80.63,-152.37 104.66 12/10/2023 00:02:00 80.64,-152.22 104.66 2.73 69
3 12/12/2023 14:33:25 80.56, -10.96 104.72 12/12/2023 14:33:33 80.57, -10.82 104.74 2.77 8
4 12/12/2023 15:24:02 -80.65, 157.69 75.10 12/12/2023 15:22:52 -80.65, 157.69 75.13 0.12 70
5 12/15/2023 05:54:17 -80.58, -60.94 75.11 12/15/2023 05:54:24 -80.58, -61.03 75.12 1.88 7
6 12/15/2023 06:44:54 80.66, 107.56 105.06 12/15/2023 06:43:43 80.66, 107.52 105.03 0.64 71
7 12/17/2023 21:15:12 80.53,-111.80 104.90 12/17/2023 21:15:17 80.54,-111.65 104.91 2.69 5
8 12/17/2023 22:05:48 -80.65, 57.21 74.87 12/17/2023 22:04:35 -80.65, 57.18 74.90 0.60 73
9 12/20/2023 12:36:05 -80.55,-161.83 75.04 12/20/2023 12:36:08 -80.55,-161.79 75.04 0.77 3
10 12/20/2023 13:26:04 81.27, 20.47 106.85 12/20/2023 13:24:51 81.54, 19.73 106.96 33.39 73



Historial Predications of SNOs between METOP-B and TERRA
